SCP
0 0 0 0 0 0 0 0 0 0 0 0 0 0 0 0 0 0 0 0 0 0 0 0 0 0 0 0 0 0 0 0 0 0 0 0 0 0 0 0 0 0 0 0
0 0 0 0 0 0 0 0 0 0 0 0 0 0 0 0 0 0 0 0 0 0 0 0 0 0 0 0 0 0 0 0 0 0 0 0 0 0 0 0 0 0 0 0
0 0 0 0 0 0 0 0 0 0 0 0 0 0 0 0 0 0 0 0 0 0 0 0 0 0 0 0 0 0 0 0 0 0 0 0 0 0 0 0 0 0 0 0
0 0 0 0 0 0 0 0 0 0 0 0 0 0 0 0 0 0 0 0 0 0 0 0 0 0 0 0 0 0 0 0 0 0 0 0 0 0 0 0 0 0 0 0
0 0 0 0 0 0 0 0 0 0 0 0 0 0 0 0 0 0 0 0 0 0 0 0 0 0 0 0 0 0 0 0 0 0 0 0 0 0 0 0 0 0 0 0
0 0 0 0 0 0 0 0 0 0 0 0 0 0 0 0 0 0 0 0 0 0 0 0 0 0 0 0 0 0 0 0 0 0 0 0 0 0 0 0 0 0 0 0
0 0 0 0 0 0 0 0 0 0 0 0 0 0 0 0 0 0 0 0 0 0 0 0 0 0 0 0 0 0 0 0 0 0 0 0 0 0 0 0 0 0 0 0
0 0 0 0 0 0 0 0 0 0 0 0 0 0 0 0 0 0 0 0 0 0 0 0 0 0 0 0 0 0 0 0 0 0 0 0 0 0 0 0 0 0 0 0
0 0 0 0 0 0 0 0 0 0 0 0 0 0 0 0 0 0 0 0 0 0 0 0 0 0 0 0 0 0 0 0 0 0 0 0 0 0 0 0 0 0 0 0
0 0 0 0 0 0 0 0 0 0 0 0 0 0 0 0 0 0 0 0 0 0 0 0 0 0 0 0 0 0 0 0 0 0 0 0 0 0 0 0 0 0 0 0
0 0 0 0 0 0 0 0 0 0 0 0 0 0 0 0 0 0 0 0 0 0 0 0 0 0 0 0 0 0 0 0 0 0 0 0 0 0 0 0 0 0 0 0
0 0 0 0 0 0 0 0 0 0 0 0 0 0 0 0 0 0 0 0 0 0 0 0 0 0 0 0 0 0 0 0 0 0 0 0 0 0 0 0 0 0 0 0
0 0 0 0 0 0 0 0 0 0 0 0 0 0 0 0 0 0 0 0 0 0 0 0 0 0 0 0 0 0 0 0 0 0 0 0 0 0 0 0 0 0 0 0
0 0 0 0 0 0 0 0 0 0 0 0 0 0 0 0 0 0 0 0 0 0 0 0 0 0 0 0 0 0 0 0 0 0 0 0 0 0 0 0 0 0 0 0
0 0 0 0 0 0 0 0 0 0 0 0 0 0 0 0 0 0 0 0 0 0 0 0 0 0 0 0 0 0 0 0 0 0 0 0 0 0 0 0 0 0 0 0
0 0 0 0 0 0 0 0 0 0 0 0 0 0 0 0 0 0 0 0 0 0 0 0 0 0 0 0 0 0 0 0 0 0 0 0 0 0 0 0 0 0 0 0
0 0 0 0 0 0 0 0 0 0 0 0 0 0 0 0 0 0 0 0 0 0 0 0 0 0 0 0 0 0 0 0 0 0 0 0 0 0 0 0 0 0 0 0
0 0 0 0 0 0 0 0 0 0 0 0 0 0 0 0 0 0 0 0 0 0 0 0 0 0 0 0 0 0 0 0 0 0 0 0 0 0 0 0 0 0 0 0
0 0 0 0 0 0 0 0 0 0 0 0 0 0 0 0 0 0 0 0 0 0 0 0 0 0 0 0 0 0 0 0 0 0 0 0 0 0 0 0 0 0 0 0
0 0 0 0 0 0 0 0 0 0 0 0 0 0 0 0 0 0 0 0 0 0 0 0 0 0 0 0 0 0 0 0 0 0 0 0 0 0 0 0 0 0 0 0
0 0 0 0 0 0 0 0 0 0 0 0 0 0 0 0 0 0 0 0 0 0 0 0 0 0 0 0 0 0 0 0 0 0 0 0 0 0 0 0 0 0 0 0
0 0 0 0 0 0 0 0 0 0 0 0 0 0 0 0 0 0 0 0 0 0 0 0 0 0 0 0 0 0 0 0 0 0 0 0 0 0 0 0 0 0 0 0
0 0 0 0 0 0 0 0 0 0 0 0 0 0 0 0 0 0 0 0 0 0 0 0 0 0 0 0 0 0 0 0 0 0 0 0 0 0 0 0 0 0 0 0
0 0 0 0 0 0 0 0 0 0 0 0 0 0 0 0 0 0 0 0 0 0 0 0 0 0 0 0 0 0 0 0 0 0 0 0 0 0 0 0 0 0 0 0
0 0 0 0 0 0 0 0 0 0 0 0 0 0 0 0 0 0 0 0 0 0 0 0 0 0 0 0 0 0 0 0 0 0 0 0 0 0 0 0 0 0 0 0
0 0 0 0 0 0 0 0 0 0 0 0 0 0 0 0 0 0 0 0 0 0 0 0 0 0 0 0 0 0 0 0 0 0 0 0 0 0 0 0 0 0 0 0
Wind_Speed
10 10 11 11 14 12 10 6 9 2 7 1 6 8 1 5 5 5 7 10 10 9 10 11 11 11 10 9 6 4 7 8 8 5 6 6 6 5 5 7 9 10 11 11
11 12 13 12 9 5 6 6 6 1 4 0 6 4 4 3 4 7 10 9 7 7 7 8 9 10 10 10 10 8 5 4 6 6 6 4 5 5 7 7 9 10 10 9
11 10 11 8 5 3 6 6 4 2 1 5 4 3 5 5 8 9 8 6 6 7 8 8 9 9 9 9 9 8 8 6 2 4 3 2 3 3 4 6 5 6 8 8
9 5 7 7 6 6 6 1 4 5 5 4 7 4 7 7 7 8 6 6 6 7 7 7 8 8 8 8 7 7 7 7 6 3 2 5 4 5 6 5 5 7 9 11
5 6 7 7 6 3 3 2 1 3 5 5 4 3 7 9 8 7 6 6 6 6 7 7 7 7 7 7 8 8 8 8 7 6 5 3 4 5 4 5 6 7 8 11
6 4 4 3 4 2 0 3 4 4 3 4 3 1 5 9 11 10 7 7 6 6 6 6 6 6 6 7 7 8 9 9 9 8 7 6 6 6 7 7 6 6 5 5
7 4 2 2 4 2 4 4 3 4 4 3 2 2 5 9 13 12 9 7 6 6 5 5 5 6 7 8 8 8 8 8 8 8 8 8 7 6 6 7 6 6 5 5
7 5 5 3 2 5 7 4 3 2 0 3 4 5 4 11 11 10 8 8 7 6 5 5 5 6 6 7 8 8 8 8 8 8 7 7 7 5 4 6 6 7 6 6
7 6 4 2 2 4 2 3 2 3 1 2 4 4 4 9 9 9 7 7 6 5 5 5 5 4 5 5 5 6 7 7 7 7 7 7 7 7 6 6 6 5 6 6
4 7 5 3 2 2 3 3 1 3 2 3 4 4 4 11 10 9 9 7 7 6 6 5 4 3 3 3 4 5 5 6 6 7 7 6 7 7 7 7 8 8 8 8
4 6 5 4 5 4 3 2 3 3 2 2 3 1 4 5 8 8 7 7 7 6 5 4 2 1 1 3 4 4 5 6 6 7 8 8 8 8 9 9 10 10 9 10
4 1 5 3 2 4 1 3 4 2 3 3 3 4 4 7 7 6 6 6 7 7 5 4 2 1 2 3 4 5 6 6 7 7 7 7 7 7 8 8 9 10 10 11
3 1 5 2 1 1 2 3 3 3 3 3 3 5 2 6 6 6 6 6 7 6 4 2 1 2 3 4 5 6 7 7 7 7 7 7 7 8 8 9 10 10 10 11
3 2 2 2 3 3 3 3 3 3 3 5 8 9 4 4 4 3 1 6 6 6 5 2 2 4 5 5 6 7 7 7 7 7 8 8 8 8 9 9 10 11 11 11
3 1 2 2 2 2 4 6 8 9 9 8 7 9 11 8 7 5 2 5 4 4 4 3 4 5 6 7 8 7 8 8 8 8 8 8 8 8 9 10 11 12 12 13
1 2 2 2 4 4 8 11 12 12 14 14 14 17 12 9 2 2 1 2 4 4 5 5 6 7 8 8 7 7 8 8 8 8 8 8 8 9 9 10 11 12 12 12
2 1 2 2 2 4 9 12 13 11 11 9 11 11 7 3 2 2 1 1 1 5 6 7 8 8 7 6 6 7 8 9 9 9 8 8 10 10 10 11 11 10 10 11
1 1 0 3 3 8 11 5 3 6 8 9 9 7 5 3 4 3 3 4 6 8 9 9 7 6 6 6 7 7 8 9 9 8 8 10 10 11 11 11 11 10 11 10
2 2 3 3 4 8 10 8 3 2 4 7 8 6 2 6 5 5 7 10 10 9 7 6 6 6 6 6 6 7 7 8 8 7 8 10 10 11 11 11 10 11 11 10
1 3 3 4 4 7 5 5 7 5 5 3 1 1 4 5 1 1 6 9 9 7 7 7 7 6 6 6 6 6 6 7 7 7 8 9 10 11 12 12 11 10 10 11
4 4 5 5 5 9 5 5 4 1 3 3 3 1 2 3 3 5 7 8 8 8 8 7 5 4 4 4 4 5 6 6 7 8 9 10 10 11 12 10 10 11 12 12
5 5 5 4 5 8 2 2 2 6 1 1 1 1 2 4 7 7 7 7 6 6 5 4 2 3 4 4 4 6 7 7 8 9 10 10 10 11 12 12 10 11 13 13
5 5 4 6 8 5 2 4 6 7 6 4 2 2 4 4 5 6 6 5 3 2 2 1 2 4 4 4 5 7 7 8 8 8 9 10 11 9 10 10 11 11 11 10
4 4 5 7 5 6 8 7 8 7 6 6 6 5 4 4 6 5 4 2 1 1 1 2 3 4 5 5 5 6 8 8 8 9 10 9 9 9 9 8 9 10 10 9
5 4 6 11 10 9 6 4 5 3 4 4 4 3 3 5 5 4 3 2 0 1 2 3 4 5 6 6 6 7 8 8 9 9 9 9 9 9 10 9 9 10 9 11
6 8 8 8 7 8 10 6 4 3 1 4 5 4 4 3 3 3 1 0 1 2 3 4 5 6 7 7 8 8 7 7 8 9 9 8 8 8 9 9 11 13 16 23
Wind_Direction
182 196 205 205 212 245 303 250 242 196 113 167 258 261 322 27 7 24 47 49 41 34 27 21 14 9 3 353 333 246 205 196 185 176 181 193 215 224 225 223 221 217 217 212
177 206 208 217 207 231 287 288 267 179 103 146 288 287 89 84 73 63 69 65 52 46 41 35 31 22 11 0 352 344 311 233 193 188 189 193 204 218 223 226 227 224 222 220
180 198 202 192 148 193 254 290 320 52 130 207 263 209 123 106 96 87 85 86 68 55 47 36 33 29 20 9 357 352 347 334 298 180 174 199 226 250 248 244 245 236 231 233
187 132 158 162 178 210 215 80 7 353 315 230 207 199 157 136 113 107 103 83 66 56 52 44 39 32 23 8 357 357 360 359 354 350 206 212 221 239 249 249 239 228 219 221
127 149 159 179 185 234 69 96 286 296 294 297 224 248 176 152 142 126 124 106 83 68 57 50 45 44 31 13 6 6 15 17 6 0 348 299 257 252 258 258 253 249 235 224
98 136 155 153 82 35 57 239 237 246 254 265 188 232 195 181 159 141 131 116 99 82 66 54 45 51 39 25 20 23 28 24 12 7 357 344 321 306 304 297 291 288 279 254
118 105 65 79 126 203 241 244 223 202 213 218 119 230 259 159 146 145 140 128 108 89 78 55 37 39 37 30 25 24 28 23 15 14 10 0 350 337 323 316 308 305 299 290
137 157 173 195 218 209 207 251 293 305 235 127 174 221 238 137 130 126 133 128 113 90 85 75 51 47 45 36 26 22 22 19 12 11 7 359 358 352 339 334 330 324 320 316
145 122 91 52 342 323 204 231 343 320 323 315 244 198 141 133 132 140 153 139 122 100 88 88 74 61 61 50 33 21 16 15 9 3 0 353 353 354 344 334 331 327 327 326
82 121 150 153 225 314 335 347 251 233 241 245 241 229 208 164 163 169 170 148 124 101 92 91 90 80 63 53 30 19 16 11 3 359 353 346 345 345 342 342 346 345 337 334
15 121 137 178 211 196 184 232 265 290 314 272 273 273 33 122 166 166 138 112 109 110 117 119 118 118 67 34 24 16 11 13 6 2 355 350 347 351 353 352 348 343 337 333
11 138 142 136 87 352 279 232 208 227 242 237 293 289 62 84 92 102 122 138 137 136 141 149 153 94 36 19 21 25 19 16 10 2 351 345 347 352 350 344 339 336 332 328
352 344 126 125 169 231 284 283 308 324 348 267 236 256 104 120 146 172 184 161 140 146 152 151 108 45 20 17 34 33 19 11 6 353 347 344 347 348 346 341 336 331 326 323
346 358 27 88 100 144 193 214 234 243 226 242 235 256 243 201 215 252 141 128 137 150 152 131 45 26 19 22 33 28 12 7 359 348 346 341 345 347 342 337 331 326 323 321
3 338 31 30 7 310 266 249 235 230 233 240 253 268 279 296 311 328 102 133 142 150 126 77 43 19 15 28 27 19 7 358 347 343 340 334 339 340 337 331 326 323 322 320
37 338 358 275 246 254 264 252 247 248 249 253 266 274 279 293 315 20 75 155 177 154 103 64 36 28 31 27 19 12 1 347 337 338 329 333 342 337 329 322 318 316 317 317
127 15 358 286 4 337 266 245 235 229 231 239 251 259 281 295 269 228 207 201 204 127 88 62 53 45 29 14 10 6 351 335 333 329 328 343 339 328 320 317 316 315 316 313
1 152 207 287 306 244 245 269 232 241 247 238 252 274 310 8 28 31 35 38 60 71 66 61 48 29 15 6 6 358 342 330 327 325 341 340 330 323 320 318 318 317 315 313
257 219 208 208 246 268 271 268 222 240 275 261 264 279 62 68 21 9 53 75 78 73 69 59 42 22 5 2 1 345 326 323 320 336 336 326 321 318 318 318 317 315 314 313
260 237 228 200 218 247 268 55 50 30 285 277 307 73 117 100 6 83 73 79 76 67 60 48 30 8 1 358 350 328 315 312 322 327 319 315 315 315 315 312 312 311 312 308
162 197 223 227 229 258 282 102 74 250 275 59 46 49 151 169 148 105 82 74 65 59 51 38 21 7 347 330 327 311 308 312 319 320 318 317 317 316 313 311 311 312 312 308
191 196 207 211 221 248 359 58 236 259 286 191 209 177 132 106 97 91 84 79 71 65 55 36 2 326 312 320 331 319 313 314 318 320 318 316 315 315 317 313 311 313 312 308
236 222 199 197 222 245 324 330 347 346 342 3 23 73 99 97 95 100 95 91 86 86 68 15 323 308 310 321 325 310 306 312 316 316 312 310 310 310 312 314 314 314 310 310
253 269 277 281 274 312 331 13 40 41 42 41 45 49 72 102 113 121 130 148 187 114 29 327 314 308 305 311 313 306 307 313 314 311 309 308 311 312 311 309 308 309 310 312
254 305 281 275 288 306 307 353 23 74 105 98 83 69 87 123 136 150 168 193 271 352 338 324 312 302 304 313 312 307 306 309 308 307 308 311 311 310 308 305 302 303 300 310
210 229 248 260 281 291 300 321 19 29 94 139 132 114 84 96 128 149 171 74 352 339 329 314 305 304 307 307 301 299 300 304 307 308 308 307 306 304 304 304 304 302 305 309